When you browse on this site, cookies collect data to enhance your experience and personalize the content and advertising you see.
Visit our Privacy Policy to learn more. By continuing to use the site, you agree to this use of cookies and data.

Hourly Weather Klyuchevaya

Today, 13 August, Thursday

Time Temperature Precipitation Wind Pressure Humidity
00:00 +11°C° 0 mm 3 mps 746 mmHg 79%
01:00 +10°C° 0 mm 3 mps 746 mmHg 83%
02:00 +9°C° 0 mm 3 mps 746 mmHg 88%
03:00 +9°C° 0.1 mm 3 mps 746 mmHg 88%
04:00 +9°C° 0.1 mm 3 mps 746 mmHg 87%
05:00 +9°C° 0.1 mm 3 mps 746 mmHg 86%
06:00 +10°C° 0 mm 3 mps 746 mmHg 83%
07:00 +10°C° 0 mm 3 mps 746 mmHg 80%
08:00 +11°C° 0 mm 3 mps 746 mmHg 76%
09:00 +13°C° 0 mm 3 mps 746 mmHg 69%
10:00 +14°C° 0 mm 3 mps 746 mmHg 63%
11:00 +16°C° 0 mm 3 mps 746 mmHg 57%
12:00 +16°C° 0 mm 3 mps 746 mmHg 56%
13:00 +17°C° 0 mm 3 mps 746 mmHg 56%
14:00 +17°C° 0 mm 3 mps 746 mmHg 55%
15:00 +17°C° 0.1 mm 3 mps 746 mmHg 61%
16:00 +16°C° 0.1 mm 3 mps 746 mmHg 66%
17:00 +15°C° 0.1 mm 2 mps 746 mmHg 72%
18:00 +14°C° 0 mm 2 mps 746 mmHg 77%
19:00 +13°C° 0 mm 2 mps 746 mmHg 81%
20:00 +12°C° 0 mm 2 mps 746 mmHg 86%
21:00 +10°C° 0 mm 2 mps 746 mmHg 89%
22:00 +9°C° 0 mm 2 mps 746 mmHg 92%
23:00 +8°C° 0 mm 2 mps 746 mmHg 95%

Tomorrow, 14 August, Friday

Time Temperature Precipitation Wind Pressure Humidity
00:00 +8°C° 0 mm 2 mps 747 mmHg 95%
01:00 +8°C° 0 mm 2 mps 747 mmHg 96%
02:00 +7°C° 0 mm 2 mps 747 mmHg 96%
03:00 +7°C° 0 mm 2 mps 747 mmHg 96%
04:00 +7°C° 0 mm 2 mps 747 mmHg 96%
05:00 +7°C° 0 mm 2 mps 747 mmHg 96%
06:00 +9°C° 0 mm 2 mps 747 mmHg 87%
07:00 +12°C° 0 mm 2 mps 748 mmHg 79%
08:00 +14°C° 0 mm 2 mps 748 mmHg 70%
09:00 +15°C° 0 mm 2 mps 748 mmHg 64%
10:00 +16°C° 0 mm 2 mps 748 mmHg 58%
11:00 +18°C° 0 mm 3 mps 748 mmHg 52%
12:00 +18°C° 0 mm 2 mps 747 mmHg 51%
13:00 +19°C° 0 mm 2 mps 747 mmHg 49%
14:00 +19°C° 0 mm 2 mps 747 mmHg 48%
15:00 +19°C° 0 mm 2 mps 747 mmHg 52%
16:00 +20°C° 0 mm 1 mps 747 mmHg 55%
17:00 +20°C° 0 mm 1 mps 747 mmHg 59%
18:00 +18°C° 0 mm 1 mps 747 mmHg 64%
19:00 +15°C° 0 mm 1 mps 747 mmHg 70%
20:00 +13°C° 0 mm 1 mps 747 mmHg 75%
21:00 +12°C° 0 mm 1 mps 747 mmHg 77%
22:00 +12°C° 0 mm 1 mps 747 mmHg 79%
23:00 +12°C° 0 mm 1 mps 748 mmHg 81%

Day after tomorrow, 15 August, Saturday

Time Temperature Precipitation Wind Pressure Humidity
00:00 +11°C° 0 mm 1 mps 748 mmHg 83%
01:00 +11°C° 0 mm 1 mps 748 mmHg 84%
02:00 +11°C° 0 mm 1 mps 748 mmHg 86%
03:00 +11°C° 0 mm 1 mps 747 mmHg 85%
04:00 +11°C° 0 mm 1 mps 747 mmHg 85%
05:00 +12°C° 0 mm 1 mps 747 mmHg 84%
06:00 +13°C° 0.1 mm 1 mps 747 mmHg 81%
07:00 +14°C° 0.1 mm 1 mps 747 mmHg 79%
08:00 +15°C° 0.1 mm 1 mps 747 mmHg 77%
09:00 +15°C° 0.1 mm 1 mps 747 mmHg 76%
10:00 +16°C° 0.1 mm 1 mps 747 mmHg 76%
11:00 +16°C° 0.1 mm 1 mps 747 mmHg 75%
12:00 +18°C° 0 mm 1 mps 747 mmHg 71%
13:00 +19°C° 0 mm 1 mps 747 mmHg 66%
14:00 +19°C° 0 mm 2 mps 747 mmHg 62%
15:00 +18°C° 0 mm 2 mps 747 mmHg 71%
16:00 +16°C° 0 mm 1 mps 746 mmHg 80%
17:00 +15°C° 0 mm 1 mps 746 mmHg 89%
18:00 +14°C° 0.1 mm 1 mps 746 mmHg 91%
19:00 +14°C° 0.1 mm 1 mps 746 mmHg 93%
20:00 +14°C° 0.1 mm 1 mps 745 mmHg 95%
21:00 +14°C° 0 mm 1 mps 745 mmHg 96%
22:00 +14°C° 0 mm 1 mps 745 mmHg 96%
23:00 +14°C° 0 mm 1 mps 745 mmHg 96%

16 August, Sunday

Time Temperature Precipitation Wind Pressure Humidity
00:00 +14°C° 0 mm 1 mps 745 mmHg 97%
01:00 +13°C° 0 mm 1 mps 745 mmHg 97%
02:00 +13°C° 0 mm 1 mps 745 mmHg 98%
03:00 +13°C° 0 mm 1 mps 744 mmHg 98%
04:00 +13°C° 0 mm 1 mps 744 mmHg 98%
05:00 +13°C° 0 mm 1 mps 744 mmHg 98%
06:00 +15°C° 0 mm 1 mps 743 mmHg 94%
07:00 +16°C° 0 mm 2 mps 743 mmHg 91%
08:00 +18°C° 0 mm 2 mps 743 mmHg 87%
09:00 +20°C° 0.2 mm 2 mps 743 mmHg 81%
10:00 +21°C° 0.2 mm 3 mps 743 mmHg 74%
11:00 +24°C° 0.2 mm 3 mps 743 mmHg 68%
12:00 +24°C° 0.3 mm 3 mps 743 mmHg 65%
13:00 +25°C° 0.3 mm 4 mps 743 mmHg 62%
14:00 +25°C° 0.3 mm 4 mps 743 mmHg 59%
15:00 +25°C° 0 mm 3 mps 743 mmHg 62%
16:00 +24°C° 0 mm 3 mps 742 mmHg 65%
17:00 +24°C° 0 mm 2 mps 742 mmHg 67%
18:00 +21°C° 0 mm 2 mps 742 mmHg 74%
19:00 +19°C° 0 mm 2 mps 742 mmHg 82%
20:00 +18°C° 0 mm 2 mps 742 mmHg 89%
21:00 +17°C° 0.2 mm 2 mps 742 mmHg 91%
22:00 +17°C° 0.2 mm 2 mps 742 mmHg 93%
23:00 +16°C° 0.2 mm 2 mps 742 mmHg 95%

17 August, Monday

Time Temperature Precipitation Wind Pressure Humidity
00:00 +16°C° 0.1 mm 2 mps 742 mmHg 95%
01:00 +15°C° 0.1 mm 2 mps 742 mmHg 96%
02:00 +15°C° 0.1 mm 2 mps 742 mmHg 97%
03:00 +15°C° 0 mm 2 mps 742 mmHg 97%
04:00 +14°C° 0 mm 1 mps 742 mmHg 97%
05:00 +14°C° 0 mm 1 mps 742 mmHg 97%
06:00 +15°C° 0 mm 1 mps 743 mmHg 91%
07:00 +18°C° 0 mm 1 mps 743 mmHg 84%
08:00 +19°C° 0 mm 1 mps 743 mmHg 78%
09:00 +20°C° 0.1 mm 1 mps 743 mmHg 73%
10:00 +21°C° 0.1 mm 1 mps 743 mmHg 69%
11:00 +22°C° 0.1 mm 1 mps 743 mmHg 64%
12:00 +22°C° 0.1 mm 1 mps 742 mmHg 62%
13:00 +23°C° 0.1 mm 1 mps 742 mmHg 60%
14:00 +23°C° 0.1 mm 2 mps 742 mmHg 58%
15:00 +23°C° 0 mm 1 mps 742 mmHg 61%
16:00 +22°C° 0 mm 1 mps 742 mmHg 63%
17:00 +22°C° 0 mm 1 mps 742 mmHg 65%
18:00 +20°C° 0 mm 1 mps 741 mmHg 69%
19:00 +18°C° 0 mm 1 mps 741 mmHg 73%
20:00 +14°C° 0 mm 1 mps 741 mmHg 77%
21:00 +14°C° 0 mm 1 mps 742 mmHg 79%
22:00 +13°C° 0 mm 1 mps 742 mmHg 80%
23:00 +12°C° 0 mm 1 mps 742 mmHg 82%

18 August, Tuesday

Time Temperature Precipitation Wind Pressure Humidity
00:00 +12°C° 0 mm 1 mps 742 mmHg 82%
01:00 +11°C° 0 mm 1 mps 742 mmHg 83%
02:00 +10°C° 0 mm 1 mps 742 mmHg 83%
03:00 +10°C° 0 mm 1 mps 742 mmHg 82%
04:00 +10°C° 0 mm 1 mps 742 mmHg 81%
05:00 +10°C° 0 mm 1 mps 742 mmHg 80%
06:00 +12°C° 0 mm 1 mps 742 mmHg 73%
07:00 +14°C° 0 mm 1 mps 742 mmHg 66%
08:00 +16°C° 0 mm 1 mps 742 mmHg 59%
09:00 +18°C° 0 mm 1 mps 742 mmHg 55%
10:00 +20°C° 0 mm 1 mps 742 mmHg 51%
11:00 +21°C° 0 mm 1 mps 742 mmHg 46%
12:00 +21°C° 0 mm 1 mps 742 mmHg 45%
13:00 +22°C° 0 mm 1 mps 741 mmHg 44%
14:00 +22°C° 0 mm 1 mps 741 mmHg 43%
15:00 +22°C° 0 mm 1 mps 741 mmHg 49%
16:00 +22°C° 0 mm 1 mps 741 mmHg 54%
17:00 +21°C° 0 mm 1 mps 741 mmHg 59%
18:00 +19°C° 0 mm 1 mps 741 mmHg 63%
19:00 +16°C° 0 mm 1 mps 741 mmHg 67%
20:00 +14°C° 0 mm 1 mps 741 mmHg 71%
21:00 +14°C° 0 mm 1 mps 741 mmHg 73%
22:00 +13°C° 0 mm 1 mps 741 mmHg 76%
23:00 +13°C° 0 mm 1 mps 741 mmHg 78%
Show more